SWR05L LSGG-EDDN

Flight info

Callsign SWR05L
Flight time 0h 52m
Altitude 30000
Route SOSAL N871 KORED DCT BERSU DCT DITON/N0422F310 DCT LOKTA DCT TEDGO N869 LETKU LETKU1V
Aircraft A320/M-SDE3FGHIRWY/LB1

Departure

Time 2026-05-07 19:02
Airport Geneva International Airport (LSGG)

Arrival

Time 2026-05-07 19:54
Airport Nuremberg Airport (EDDN)
Time Latitude Longitude Altitude Speed Heading
2026-05-07 18:22 46.23007 6.10532 1392 ft 0 kts 137°
2026-05-07 18:44 46.23022 6.10513 1385 ft 4 kts 145°
2026-05-07 18:44 46.23045 6.10498 1386 ft 4 kts 181°
2026-05-07 18:44 46.23061 6.10504 1387 ft 0 kts 226°
2026-05-07 18:49 46.23059 6.10502 1388 ft 2 kts 226°
2026-05-07 18:50 46.23024 6.10448 1386 ft 13 kts 226°
2026-05-07 18:50 46.22973 6.10373 1389 ft 9 kts 226°
2026-05-07 18:50 46.22961 6.10306 1390 ft 7 kts 291°
2026-05-07 18:50 46.22991 6.10254 1388 ft 6 kts 314°
2026-05-07 18:51 46.23012 6.10204 1390 ft 6 kts 276°
2026-05-07 18:51 46.23025 6.10170 1387 ft 3 kts 338°
2026-05-07 18:51 46.23038 6.10162 1387 ft 2 kts 331°
2026-05-07 18:51 46.23040 6.10112 1387 ft 8 kts 251°
2026-05-07 18:52 46.23008 6.10048 1388 ft 8 kts 226°
2026-05-07 18:52 46.22971 6.09997 1388 ft 7 kts 223°
2026-05-07 18:52 46.22922 6.09929 1403 ft 12 kts 225°
2026-05-07 18:52 46.22851 6.09824 1395 ft 17 kts 225°
2026-05-07 18:53 46.22753 6.09680 1398 ft 22 kts 226°
2026-05-07 18:53 46.22645 6.09523 1400 ft 22 kts 226°
2026-05-07 18:53 46.22575 6.09410 1406 ft 10 kts 237°
2026-05-07 18:53 46.22557 6.09343 1405 ft 0 kts 255°
2026-05-07 18:57 46.22556 6.09333 1407 ft 6 kts 258°
2026-05-07 18:57 46.22552 6.09247 1404 ft 2 kts 272°
2026-05-07 19:00 46.22554 6.09230 1409 ft 6 kts 277°
2026-05-07 19:00 46.22604 6.09165 1404 ft 13 kts 358°
2026-05-07 19:00 46.22657 6.09217 1404 ft 0 kts 46°
2026-05-07 19:01 46.22723 6.09319 1404 ft 47 kts 47°
2026-05-07 19:01 46.23126 6.09900 1387 ft 113 kts 45°
2026-05-07 19:02 46.23810 6.10894 1380 ft 164 kts 45°
2026-05-07 19:02 46.24623 6.12093 1874 ft 168 kts 46°
2026-05-07 19:02 46.25441 6.13334 2522 ft 172 kts 46°
2026-05-07 19:02 46.26298 6.14622 2929 ft 190 kts 46°
2026-05-07 19:03 46.27249 6.16063 3199 ft 211 kts 45°
2026-05-07 19:03 46.28344 6.17662 3573 ft 232 kts 45°
2026-05-07 19:03 46.29522 6.19371 4022 ft 252 kts 45°
2026-05-07 19:03 46.30780 6.21204 4831 ft 260 kts 46°
2026-05-07 19:04 46.32063 6.23080 5663 ft 266 kts 46°
2026-05-07 19:04 46.33381 6.25012 6434 ft 274 kts 46°
2026-05-07 19:04 46.34740 6.27004 7142 ft 282 kts 46°
2026-05-07 19:04 46.36081 6.29110 7908 ft 287 kts 54°
2026-05-07 19:05 46.37086 6.31623 8664 ft 291 kts 69°
2026-05-07 19:05 46.37704 6.34436 9426 ft 296 kts 76°
2026-05-07 19:05 46.38277 6.37330 10150 ft 302 kts 76°
2026-05-07 19:05 46.38875 6.40339 10492 ft 322 kts 76°
2026-05-07 19:06 46.39517 6.43563 10748 ft 343 kts 75°
2026-05-07 19:06 46.40873 6.50325 12052 ft 354 kts 74°
2026-05-07 19:06 46.41566 6.53776 12759 ft 359 kts 74°
2026-05-07 19:07 46.42262 6.57264 13464 ft 362 kts 74°
2026-05-07 19:07 46.42965 6.60792 14129 ft 366 kts 74°
2026-05-07 19:07 46.43670 6.64314 15045 ft 356 kts 72°
2026-05-07 19:07 46.44561 6.67546 16351 ft 335 kts 62°
2026-05-07 19:08 46.45735 6.70330 17665 ft 313 kts 51°
2026-05-07 19:08 46.47068 6.72765 18580 ft 306 kts 49°
2026-05-07 19:08 46.48407 6.75157 19174 ft 306 kts 49°
2026-05-07 19:08 46.49753 6.77561 19726 ft 308 kts 49°
2026-05-07 19:09 46.51105 6.79980 20259 ft 310 kts 49°
2026-05-07 19:09 46.52468 6.82426 20774 ft 313 kts 49°
2026-05-07 19:09 46.53839 6.84897 21273 ft 316 kts 49°
2026-05-07 19:09 46.55224 6.87393 21766 ft 319 kts 49°
2026-05-07 19:10 46.56624 6.89914 22264 ft 322 kts 49°
2026-05-07 19:10 46.58038 6.92451 22743 ft 325 kts 49°
2026-05-07 19:10 46.59467 6.95016 23231 ft 328 kts 49°
2026-05-07 19:10 46.60906 6.97603 23694 ft 331 kts 49°
2026-05-07 19:11 46.62361 7.00216 24086 ft 334 kts 49°
2026-05-07 19:11 46.63830 7.02853 24466 ft 337 kts 49°
2026-05-07 19:11 46.65311 7.05517 24824 ft 340 kts 49°
2026-05-07 19:11 46.66802 7.08209 25191 ft 343 kts 49°
2026-05-07 19:12 46.68305 7.10927 25573 ft 346 kts 49°
2026-05-07 19:12 46.69802 7.13637 25917 ft 350 kts 49°
2026-05-07 19:12 46.71334 7.16412 26290 ft 353 kts 49°
2026-05-07 19:12 46.72894 7.19242 26462 ft 364 kts 49°
2026-05-07 19:13 46.74502 7.22161 26610 ft 375 kts 49°
2026-05-07 19:13 46.76159 7.25165 26746 ft 385 kts 49°
2026-05-07 19:13 46.77860 7.28254 26878 ft 396 kts 49°
2026-05-07 19:13 46.79611 7.31441 27010 ft 407 kts 49°
2026-05-07 19:14 46.81404 7.34711 27138 ft 418 kts 49°
2026-05-07 19:14 46.83242 7.38066 27268 ft 428 kts 49°
2026-05-07 19:14 46.85119 7.41494 27403 ft 436 kts 49°
2026-05-07 19:14 46.87032 7.44992 27537 ft 444 kts 49°
2026-05-07 19:15 46.88974 7.48555 27671 ft 452 kts 49°
2026-05-07 19:15 46.90941 7.52176 27814 ft 459 kts 49°
2026-05-07 19:15 46.92938 7.55858 27952 ft 465 kts 50°
2026-05-07 19:15 46.94959 7.59593 28106 ft 471 kts 50°
2026-05-07 19:16 46.97005 7.63374 28245 ft 476 kts 50°
2026-05-07 19:16 46.99070 7.67192 28383 ft 481 kts 50°
2026-05-07 19:16 47.01156 7.71047 28521 ft 484 kts 49°
2026-05-07 19:16 47.03255 7.74934 28657 ft 488 kts 50°
2026-05-07 19:17 47.05360 7.78845 28796 ft 490 kts 50°
2026-05-07 19:17 47.07473 7.82784 28935 ft 492 kts 50°
2026-05-07 19:17 47.09593 7.86742 29075 ft 494 kts 50°
2026-05-07 19:17 47.11719 7.90707 29243 ft 495 kts 50°
2026-05-07 19:18 47.13802 7.94727 29373 ft 497 kts 54°
2026-05-07 19:18 47.15657 7.99015 29517 ft 497 kts 56°
2026-05-07 19:18 47.18717 8.06183 29756 ft 498 kts 56°
2026-05-07 19:19 47.20553 8.10498 29909 ft 498 kts 56°
2026-05-07 19:19 47.22389 8.14818 30035 ft 499 kts 56°
2026-05-07 19:19 47.24198 8.19090 30041 ft 482 kts 56°
2026-05-07 19:19 47.25932 8.23196 30046 ft 463 kts 56°
2026-05-07 19:20 47.27606 8.27166 30042 ft 452 kts 56°
2026-05-07 19:20 47.29396 8.30925 30046 ft 445 kts 47°
2026-05-07 19:20 47.33921 8.36895 30047 ft 433 kts 30°
2026-05-07 19:21 47.39007 8.41782 30047 ft 444 kts 30°
2026-05-07 19:21 47.44283 8.46891 30058 ft 462 kts 30°
2026-05-07 19:22 47.49736 8.52191 30071 ft 475 kts 30°
2026-05-07 19:22 47.55270 8.57588 30057 ft 477 kts 31°
2026-05-07 19:23 47.60808 8.62996 30056 ft 477 kts 31°
2026-05-07 19:23 47.63550 8.65675 30049 ft 464 kts 30°
2026-05-07 19:23 47.66156 8.68227 30056 ft 445 kts 30°
2026-05-07 19:24 47.71257 8.73223 30057 ft 431 kts 30°
2026-05-07 19:24 47.76249 8.78117 30063 ft 429 kts 30°
2026-05-07 19:25 47.81193 8.82979 30062 ft 429 kts 31°
2026-05-07 19:25 47.86168 8.87893 30061 ft 429 kts 30°
2026-05-07 19:26 47.91134 8.92811 30089 ft 428 kts 30°
2026-05-07 19:26 47.96083 8.97726 30092 ft 426 kts 30°
2026-05-07 19:27 48.01012 9.02633 30090 ft 425 kts 30°
2026-05-07 19:27 48.05930 9.07527 30084 ft 425 kts 30°
2026-05-07 19:28 48.10837 9.12434 30097 ft 424 kts 31°
2026-05-07 19:28 48.15856 9.16950 30096 ft 418 kts 19°
2026-05-07 19:29 48.21404 9.19066 30092 ft 409 kts
2026-05-07 19:29 48.27065 9.20012 30084 ft 409 kts
2026-05-07 19:30 48.32725 9.20971 30095 ft 409 kts
2026-05-07 19:30 48.38371 9.21931 30091 ft 408 kts
2026-05-07 19:31 48.44011 9.22884 30083 ft 407 kts
2026-05-07 19:31 48.49689 9.23835 30075 ft 419 kts
2026-05-07 19:32 48.55597 9.24833 30083 ft 431 kts
2026-05-07 19:32 48.61374 9.27352 30080 ft 441 kts 26°
2026-05-07 19:33 48.63887 9.30038 30078 ft 446 kts 40°
2026-05-07 19:33 48.65992 9.33513 30084 ft 450 kts 48°
2026-05-07 19:33 48.69964 9.40826 30078 ft 450 kts 48°
2026-05-07 19:34 48.73926 9.48151 30069 ft 449 kts 48°
2026-05-07 19:34 48.77876 9.55469 30064 ft 449 kts 48°
2026-05-07 19:35 48.81825 9.62796 30064 ft 448 kts 48°
2026-05-07 19:35 48.85764 9.70132 30062 ft 448 kts 48°
2026-05-07 19:36 48.89695 9.77468 30082 ft 448 kts 49°
2026-05-07 19:36 48.93635 9.84841 30077 ft 448 kts 49°
2026-05-07 19:37 48.97568 9.92203 30075 ft 448 kts 49°
2026-05-07 19:37 49.01445 9.99500 29450 ft 437 kts 49°
2026-05-07 19:38 49.03341 10.03094 28841 ft 433 kts 49°
2026-05-07 19:38 49.05240 10.06686 27644 ft 438 kts 49°
2026-05-07 19:38 49.07150 10.10293 26425 ft 436 kts 49°
2026-05-07 19:38 49.09049 10.13883 25273 ft 433 kts 49°
2026-05-07 19:39 49.10905 10.17401 24176 ft 430 kts 49°
2026-05-07 19:39 49.12759 10.21030 22973 ft 427 kts 53°
2026-05-07 19:39 49.14437 10.24760 21730 ft 425 kts 54°
2026-05-07 19:39 49.16089 10.28501 20539 ft 423 kts 54°
2026-05-07 19:40 49.17729 10.32223 19401 ft 421 kts 54°
2026-05-07 19:40 49.19361 10.35928 18289 ft 419 kts 54°
2026-05-07 19:40 49.20983 10.39606 17052 ft 417 kts 54°
2026-05-07 19:40 49.22603 10.43360 15833 ft 429 kts 59°
2026-05-07 19:41 49.23723 10.47631 14669 ft 436 kts 73°
2026-05-07 19:41 49.24503 10.52040 13518 ft 423 kts 74°
2026-05-07 19:41 49.25233 10.56252 12849 ft 402 kts 74°
2026-05-07 19:41 49.25922 10.60232 12616 ft 372 kts 74°
2026-05-07 19:42 49.26559 10.63911 12493 ft 344 kts 74°
2026-05-07 19:42 49.27159 10.67389 12364 ft 332 kts 74°
2026-05-07 19:42 49.27737 10.70744 12230 ft 319 kts 74°
2026-05-07 19:42 49.28279 10.73917 12096 ft 298 kts 74°
2026-05-07 19:43 49.28782 10.76892 11923 ft 280 kts 74°
2026-05-07 19:43 49.29263 10.79740 11670 ft 274 kts 74°
2026-05-07 19:43 49.29739 10.82554 11420 ft 271 kts 74°
2026-05-07 19:43 49.30208 10.85331 11172 ft 268 kts 74°
2026-05-07 19:44 49.30675 10.88088 10923 ft 267 kts 74°
2026-05-07 19:44 49.31150 10.90878 10361 ft 277 kts 74°
2026-05-07 19:44 49.31647 10.93782 9735 ft 288 kts 74°
2026-05-07 19:44 49.32164 10.96798 9067 ft 297 kts 74°
2026-05-07 19:45 49.32695 10.99902 8410 ft 305 kts 74°
2026-05-07 19:45 49.33236 11.03081 7767 ft 311 kts 74°
2026-05-07 19:45 49.33784 11.06316 7131 ft 316 kts 74°
2026-05-07 19:45 49.34335 11.09593 6516 ft 320 kts 74°
2026-05-07 19:46 49.34889 11.12908 5846 ft 322 kts 74°
2026-05-07 19:46 49.35441 11.16274 5078 ft 328 kts 74°
2026-05-07 19:46 49.35985 11.19658 4331 ft 321 kts 74°
2026-05-07 19:46 49.36494 11.22864 4073 ft 296 kts 74°
2026-05-07 19:47 49.36952 11.25789 3981 ft 267 kts 75°
2026-05-07 19:47 49.37356 11.28421 3990 ft 243 kts 75°
2026-05-07 19:47 49.37740 11.30923 4000 ft 240 kts 74°
2026-05-07 19:47 49.38194 11.33340 3996 ft 226 kts 64°
2026-05-07 19:48 49.39006 11.35299 4001 ft 215 kts 47°
2026-05-07 19:48 49.39982 11.37026 3999 ft 213 kts 45°
2026-05-07 19:48 49.40977 11.38713 4001 ft 213 kts 44°
2026-05-07 19:48 49.41975 11.40396 3997 ft 213 kts 44°
2026-05-07 19:49 49.43010 11.42011 3996 ft 210 kts 31°
2026-05-07 19:49 49.44348 11.42708 3999 ft 203 kts 356°
2026-05-07 19:49 49.45627 11.42159 4018 ft 182 kts 325°
2026-05-07 19:49 49.46450 11.40783 4010 ft 173 kts 297°
2026-05-07 19:50 49.46749 11.39015 3992 ft 171 kts 280°
2026-05-07 19:50 49.46929 11.37214 3990 ft 170 kts 281°
2026-05-07 19:50 49.47110 11.35418 3992 ft 170 kts 281°
2026-05-07 19:50 49.47291 11.33626 3994 ft 170 kts 280°
2026-05-07 19:51 49.47470 11.31850 3904 ft 171 kts 281°
2026-05-07 19:51 49.47654 11.30026 3711 ft 170 kts 281°
2026-05-07 19:51 49.47832 11.28259 3513 ft 169 kts 281°
2026-05-07 19:51 49.48012 11.26470 3319 ft 175 kts 281°
2026-05-07 19:52 49.48191 11.24655 3158 ft 166 kts 280°
2026-05-07 19:52 49.48355 11.22940 2824 ft 159 kts 281°
2026-05-07 19:52 49.48531 11.21277 2594 ft 159 kts 282°
2026-05-07 19:52 49.48711 11.19586 2442 ft 163 kts 281°
2026-05-07 19:53 49.48878 11.17846 2248 ft 167 kts 280°
2026-05-07 19:53 49.49047 11.16047 1928 ft 167 kts 280°
2026-05-07 19:53 49.49226 11.14305 1729 ft 165 kts 280°
2026-05-07 19:53 49.49409 11.12541 1488 ft 170 kts 280°
2026-05-07 19:54 49.49588 11.10735 1262 ft 168 kts 278°
2026-05-07 19:54 49.49743 11.09055 1061 ft 147 kts 279°
2026-05-07 19:54 49.49872 11.07715 1032 ft 101 kts 279°
2026-05-07 19:54 49.49946 11.07031 1022 ft 46 kts 278°
2026-05-07 19:55 49.49987 11.06603 1019 ft 31 kts 276°
2026-05-07 19:55 49.49897 11.06491 1018 ft 12 kts 165°
2026-05-07 19:55 49.49893 11.06493 1018 ft 0 kts 163°
2026-05-07 19:56 49.49888 11.06496 1018 ft 3 kts 163°
2026-05-07 19:56 49.49846 11.06517 1018 ft 9 kts 157°
2026-05-07 19:56 49.49797 11.06588 1017 ft 10 kts 112°
2026-05-07 19:56 49.49784 11.06680 1017 ft 8 kts 96°
2026-05-07 19:57 49.49776 11.06789 1018 ft 15 kts 99°
2026-05-07 19:57 49.49756 11.06998 1021 ft 24 kts 99°
2026-05-07 19:57 49.49716 11.07211 1023 ft 15 kts 155°
2026-05-07 19:57 49.49641 11.07261 1026 ft 10 kts 120°
2026-05-07 19:58 49.49626 11.07355 1025 ft 8 kts 100°
2026-05-07 19:58 49.49620 11.07405 1027 ft 2 kts 100°
2026-05-07 19:58 49.49618 11.07424 1028 ft 5 kts 98°
2026-05-07 19:58 49.49592 11.07527 1027 ft 6 kts 152°
2026-05-07 19:59 49.49552 11.07520 1026 ft 7 kts 184°
2026-05-07 19:59 49.49543 11.07518 1027 ft 0 kts 187°